Location: Leedale
(52.5833°N, 114.4833°W)
Time: 14:19:02
(UTC+00:00)

Envisat - Pass Details

Date: 09 August 2024
Orbit: 762 x 764 km, 98.3° (Epoch: 08 September)

Event Time Altitude Azimuth Distance (km) Brightness Sun altitude
Rises 09:06:35 0° 32° (NNE) 3,240 7.8 -19.4°
Maximum altitude 09:12:09 10° 81° (E) 2,306 5.9 -19.1°
Drops below altitude 10° 09:12:19 10° 83° (E) 2,307 5.8 -19.1°
Sets 09:17:41 0° 131° (SE) 3,219 6.1 -18.8°
